CAPE
0 0 0 53 43 9 16 1 0 0 0 0 0 0 0 12 6 0 0 872 709 940 844 1283 1221 1278 1181 980 984 894 963 1113 1194 1210 1244 1126 1150 1091 970 933 909 805 816 733 701 649 527 464 779
0 0 13 9 32 2 0 0 0 0 0 0 0 0 0 0 0 0 0 118 556 691 1523 1477 1103 1127 928 928 983 830 888 957 1041 1076 1045 995 962 896 882 915 853 826 764 724 658 534 668 518 678
0 0 0 3 11 3 0 0 0 0 0 0 0 0 0 0 0 0 0 1 113 532 1192 1132 1169 1066 793 718 940 1345 1046 895 859 646 724 659 880 742 797 791 966 1026 1098 930 692 655 528 522 499
0 0 0 0 0 0 0 0 0 0 0 0 0 0 0 0 0 0 0 0 47 258 890 1201 1089 714 809 1236 814 375 314 441 617 679 505 480 213 454 644 115 455 791 1001 1128 1054 852 719 619 545
0 0 0 0 0 0 0 0 0 0 0 0 0 0 0 0 0 0 0 0 111 356 927 1317 1511 1561 1458 841 576 191 23 71 71 111 230 424 498 86 262 0 4 103 21 412 759 1026 879 834 643
0 0 0 0 0 0 0 0 0 0 0 0 0 0 0 0 0 0 0 0 152 355 812 1190 1302 1101 759 290 59 0 0 0 0 0 0 162 423 21 270 176 7 3 0 16 32 390 764 897 732
0 0 0 0 0 0 0 0 0 0 0 0 0 0 0 0 0 0 0 0 0 349 463 339 66 5 3 0 0 0 0 0 0 0 0 0 0 0 0 0 8 202 212 8 0 0 186 595 899
0 0 0 0 0 0 0 0 0 0 0 0 0 0 0 0 0 0 0 0 0 0 68 162 45 0 0 0 0 0 0 0 0 0 0 0 0 0 0 0 0 0 0 0 33 0 312 398 589
0 0 0 0 0 0 0 0 0 0 0 0 0 0 0 0 0 0 0 0 0 0 0 0 0 0 0 0 0 0 0 0 0 0 0 0 0 0 0 0 0 0 0 0 0 0 216 71 83
0 0 0 0 0 0 0 0 0 0 0 0 0 0 0 0 0 0 0 0 0 0 0 0 0 0 0 0 0 0 0 0 0 0 0 0 0 0 0 0 0 0 0 0 0 0 0 0 0
0 0 0 0 0 0 0 0 0 0 0 0 0 0 0 0 0 0 0 0 0 0 0 0 0 0 0 0 0 0 0 0 0 0 0 0 0 0 0 0 0 0 0 0 0 0 0 0 0
0 0 0 0 0 0 0 0 0 0 0 0 0 0 0 0 0 0 0 0 0 0 0 0 0 0 0 0 0 0 0 0 0 0 0 0 0 0 0 0 0 0 0 0 0 0 0 0 0
0 0 0 0 0 0 0 0 0 0 0 0 0 0 0 0 0 0 0 0 0 0 0 0 0 0 0 0 0 0 0 0 0 0 0 0 0 0 0 0 0 0 0 0 0 0 0 0 0
0 0 0 0 0 0 0 0 0 0 0 0 0 0 0 0 0 0 0 0 0 0 0 0 0 0 0 0 0 0 0 0 0 0 0 0 0 0 0 0 0 0 0 0 0 0 0 0 0
0 0 0 0 0 0 0 0 0 0 0 0 0 0 0 0 0 0 0 0 0 0 0 0 0 0 0 0 0 0 0 0 0 0 0 0 0 0 0 0 0 0 0 0 0 0 0 0 0
0 0 0 0 0 0 0 0 0 0 0 0 0 0 0 0 0 0 0 0 0 0 0 0 0 0 0 0 0 0 0 0 0 0 0 0 0 0 0 0 0 0 0 0 0 0 0 0 0
0 0 0 0 0 0 0 0 0 0 0 0 0 0 0 0 0 0 0 0 0 0 0 0 0 0 0 0 0 0 0 0 0 0 0 0 0 0 0 0 0 0 0 0 0 0 0 0 0
0 0 0 0 0 0 0 0 0 0 0 0 0 0 0 0 0 0 0 0 0 0 0 0 0 0 0 0 0 0 0 0 0 0 0 0 0 0 0 0 0 0 0 0 0 0 0 0 0
0 0 0 0 0 0 0 0 0 0 0 0 0 0 0 0 0 0 0 0 0 0 0 0 0 0 0 0 0 0 0 0 0 0 0 0 0 0 0 0 0 0 0 0 0 0 0 0 0
0 0 0 0 0 0 0 0 0 0 0 0 0 0 0 0 0 0 0 0 0 0 0 0 0 0 0 0 0 0 0 0 0 0 0 0 0 0 0 0 0 0 0 0 0 0 0 0 0
0 0 0 0 0 0 0 0 0 0 0 0 0 0 0 0 0 0 0 0 0 0 0 0 0 0 0 0 0 0 0 0 0 0 0 0 0 0 0 0 0 0 0 0 0 0 0 0 0
0 0 0 0 0 0 0 0 0 0 0 0 0 0 0 0 0 0 0 0 0 0 0 0 0 0 0 0 0 0 0 0 0 0 0 0 0 0 0 0 0 0 0 0 0 0 0 0 0
0 0 0 0 0 0 0 0 0 0 0 0 0 0 0 0 0 0 0 0 0 0 0 0 0 0 0 0 0 0 0 0 0 0 0 0 0 0 0 0 0 0 0 0 0 0 0 0 0
0 0 0 0 0 0 0 0 0 0 0 0 0 0 0 0 0 0 0 0 0 0 0 0 0 0 0 0 0 0 0 0 0 0 0 0 0 0 0 0 0 0 0 0 0 0 0 0 0
0 0 0 0 0 0 0 0 0 0 0 0 0 0 0 0 0 0 0 0 0 0 0 0 0 0 0 0 0 0 0 0 0 0 0 0 0 0 0 0 0 0 0 0 0 0 0 0 0
0 0 0 0 0 0 0 0 0 0 0 0 0 0 0 0 0 0 0 0 0 0 0 0 0 0 0 0 0 0 0 0 0 0 0 0 0 0 0 0 0 0 0 0 0 0 0 0 0
0 0 0 0 0 0 0 0 0 0 0 0 0 0 0 0 0 0 0 0 0 0 0 0 0 0 0 0 0 0 0 0 0 0 0 0 0 0 0 0 0 0 0 0 0 0 0 0 0
0 0 0 0 0 0 0 0 0 0 0 0 0 0 0 0 0 0 0 0 0 0 0 0 0 0 0 0 0 0 0 0 0 0 0 0 0 0 0 0 0 0 0 0 0 0 0 0 0
0 0 0 0 0 0 0 0 0 0 0 0 0 0 0 0 0 0 0 0 0 0 0 0 0 0 0 0 0 0 0 0 0 0 0 0 0 0 0 0 0 0 0 0 0 0 0 0 0
0 0 0 0 0 0 0 0 0 0 0 0 0 0 0 0 0 0 0 0 0 0 0 0 0 0 0 0 0 0 0 0 0 0 0 0 0 0 0 0 0 0 0 0 0 0 0 0 0
CIN
0 0 0 -234 -22 -33 -14 -6 0 0 0 0 0 0 0 -165 -161 -18 0 -29 -11 -22 -37 -32 -28 -17 -8 -15 -10 -25 -14 -2 0 0 0 -1 0 0 -4 -3 -4 -11 -4 -14 -18 -26 -50 -50 -7
0 0 -103 -104 -17 -4 0 0 0 0 0 0 0 0 0 0 0 0 0 -151 -73 -57 -18 -16 -34 -20 -26 -25 -15 -44 -46 -33 -17 -9 -5 -8 -17 -26 -31 -24 -25 -25 -22 -18 -35 -54 -38 -57 -38
0 0 0 -57 -35 -23 0 0 0 0 0 0 0 0 0 0 0 0 0 -96 -203 -132 -43 -41 -30 -28 -48 -48 -25 -1 -13 -38 -41 -95 -76 -91 -45 -76 -60 -61 -23 -15 -11 -22 -38 -43 -70 -74 -79
0 0 0 0 0 0 0 0 0 0 0 0 0 0 0 0 0 0 0 0 -310 -199 -64 -27 -45 -76 -50 -8 -51 -214 -254 -182 -99 -83 -177 -188 -326 -194 -119 -382 -169 -73 -24 -3 -17 -33 -45 -63 -89
0 0 0 0 0 0 0 0 0 0 0 0 0 0 0 0 0 0 0 0 -254 -185 -87 -40 -15 -1 -4 -67 -150 -372 -579 -538 -515 -448 -361 -243 -199 -396 -303 0 -190 -354 -314 -184 -73 -15 -41 -41 -66
0 0 0 0 0 0 0 0 0 0 0 0 0 0 0 0 0 0 0 0 -281 -210 -121 -67 -42 -64 -115 -308 -520 0 0 0 0 0 0 -374 -235 -45 -285 -339 -239 -189 0 -197 -272 -200 -61 -40 -60
0 0 0 0 0 0 0 0 0 0 0 0 0 0 0 0 0 0 0 0 0 -215 -192 -251 -404 -114 -123 -137 0 0 0 0 0 0 0 0 0 0 0 0 -181 -283 -270 -392 0 0 -295 -107 -29
0 0 0 0 0 0 0 0 0 0 0 0 0 0 0 0 0 0 0 0 0 0 -233 -317 -459 0 0 0 0 0 0 0 0 0 0 0 0 0 0 0 0 0 0 0 -371 0 -212 -185 -117
0 0 0 0 0 0 0 0 0 0 0 0 0 0 0 0 0 0 0 0 0 0 0 0 0 0 0 0 0 0 0 0 0 0 0 0 0 0 0 0 0 0 0 0 0 0 -232 -346 -318
0 0 0 0 0 0 0 0 0 0 0 0 0 0 0 0 0 0 0 0 0 0 0 0 0 0 0 0 0 0 0 0 0 0 0 0 0 0 0 0 0 0 0 0 0 0 0 0 0
0 0 0 0 0 0 0 0 0 0 0 0 0 0 0 0 0 0 0 0 0 0 0 0 0 0 0 0 0 0 0 0 0 0 0 0 0 0 0 0 0 0 0 0 0 0 0 0 0
0 0 0 0 0 0 0 0 0 0 0 0 0 0 0 0 0 0 0 0 0 0 0 0 0 0 0 0 0 0 0 0 0 0 0 0 0 0 0 0 0 0 0 0 0 0 0 0 0
0 0 0 0 0 0 0 0 0 0 0 0 0 0 0 0 0 0 0 0 0 0 0 0 0 0 0 0 0 0 0 0 0 0 0 0 0 0 0 0 0 0 0 0 0 0 0 0 0
0 0 0 0 0 0 0 0 0 0 0 0 0 0 0 0 0 0 0 0 0 0 0 0 0 0 0 0 0 0 0 0 0 0 0 0 0 0 0 0 0 0 0 0 0 0 0 0 0
0 0 0 0 0 0 0 0 0 0 0 0 0 0 0 0 0 0 0 0 0 0 0 0 0 0 0 0 0 0 0 0 0 0 0 0 0 0 0 0 0 0 0 0 0 0 0 0 0
0 0 0 0 0 0 0 0 0 0 0 0 0 0 0 0 0 0 0 0 0 0 0 0 0 0 0 0 0 0 0 0 0 0 0 0 0 0 0 0 0 0 0 0 0 0 0 0 0
0 0 0 0 0 0 0 0 0 0 0 0 0 0 0 0 0 0 0 0 0 0 0 0 0 0 0 0 0 0 0 0 0 0 0 0 0 0 0 0 0 0 0 0 0 0 0 0 0
0 0 0 0 0 0 0 0 0 0 0 0 0 0 0 0 0 0 0 0 0 0 0 0 0 0 0 0 0 0 0 0 0 0 0 0 0 0 0 0 0 0 0 0 0 0 0 0 0
0 0 0 0 0 0 0 0 0 0 0 0 0 0 0 0 0 0 0 0 0 0 0 0 0 0 0 0 0 0 0 0 0 0 0 0 0 0 0 0 0 0 0 0 0 0 0 0 0
0 0 0 0 0 0 0 0 0 0 0 0 0 0 0 0 0 0 0 0 0 0 0 0 0 0 0 0 0 0 0 0 0 0 0 0 0 0 0 0 0 0 0 0 0 0 0 0 0
0 0 0 0 0 0 0 0 0 0 0 0 0 0 0 0 0 0 0 0 0 0 0 0 0 0 0 0 0 0 0 0 0 0 0 0 0 0 0 0 0 0 0 0 0 0 0 0 0
0 0 0 0 0 0 0 0 0 0 0 0 0 0 0 0 0 0 0 0 0 0 0 0 0 0 0 0 0 0 0 0 0 0 0 0 0 0 0 0 0 0 0 0 0 0 0 0 0
0 0 0 0 0 0 0 0 0 0 0 0 0 0 0 0 0 0 0 0 0 0 0 0 0 0 0 0 0 0 0 0 0 0 0 0 0 0 0 0 0 0 0 0 0 0 0 0 0
0 0 0 0 0 0 0 0 0 0 0 0 0 0 0 0 0 0 0 0 0 0 0 0 0 0 0 0 0 0 0 0 0 0 0 0 0 0 0 0 0 0 0 0 0 0 0 0 0
0 0 0 0 0 0 0 0 0 0 0 0 0 0 0 0 0 0 0 0 0 0 0 0 0 0 0 0 0 0 0 0 0 0 0 0 0 0 0 0 0 0 0 0 0 0 0 0 0
0 0 0 0 0 0 0 0 0 0 0 0 0 0 0 0 0 0 0 0 0 0 0 0 0 0 0 0 0 0 0 0 0 0 0 0 0 0 0 0 0 0 0 0 0 0 0 0 0
0 0 0 0 0 0 0 0 0 0 0 0 0 0 0 0 0 0 0 0 0 0 0 0 0 0 0 0 0 0 0 0 0 0 0 0 0 0 0 0 0 0 0 0 0 0 0 0 0
0 0 0 0 0 0 0 0 0 0 0 0 0 0 0 0 0 0 0 0 0 0 0 0 0 0 0 0 0 0 0 0 0 0 0 0 0 0 0 0 0 0 0 0 0 0 0 0 0
0 0 0 0 0 0 0 0 0 0 0 0 0 0 0 0 0 0 0 0 0 0 0 0 0 0 0 0 0 0 0 0 0 0 0 0 0 0 0 0 0 0 0 0 0 0 0 0 0
0 0 0 0 0 0 0 0 0 0 0 0 0 0 0 0 0 0 0 0 0 0 0 0 0 0 0 0 0 0 0 0 0 0 0 0 0 0 0 0 0 0 0 0 0 0 0 0 0
Wind_Speed
16 16 16 14 14 12 12 13 11 13 12 9 12 13 15 14 19 21 12 19 19 22 21 22 25 25 26 26 27 29 30 30 30 30 30 28 29 28 28 27 24 20 18 19 20 22 21 19 19
17 16 13 16 14 14 15 13 7 12 10 13 14 13 13 15 15 16 12 12 18 19 22 23 24 25 26 26 27 28 29 29 29 30 30 30 30 29 28 27 26 24 18 15 15 14 17 17 17
18 18 16 16 15 15 13 14 11 13 17 16 10 11 13 14 12 10 9 15 17 19 22 24 25 25 26 27 28 28 28 29 29 29 30 30 30 30 30 29 26 26 25 23 21 18 17 16 15
16 16 16 15 11 14 10 5 9 11 19 14 10 12 13 13 9 8 9 16 17 19 21 24 25 26 27 28 28 28 28 28 28 28 28 28 30 30 29 31 29 28 26 25 24 21 17 16 14
15 16 17 17 14 11 8 8 8 7 10 10 11 10 11 9 6 8 10 15 18 20 21 23 25 25 25 26 26 27 27 27 27 28 27 27 27 29 29 30 30 29 28 27 25 22 19 15 14
17 17 18 21 18 10 9 11 17 12 8 9 10 9 9 8 6 9 10 13 17 19 21 23 24 25 25 25 26 26 26 27 27 28 29 27 28 29 29 29 29 28 29 28 27 25 22 19 14
18 18 21 18 11 11 10 7 16 10 8 14 9 8 8 4 8 8 9 11 15 17 19 22 23 24 24 24 24 25 26 27 28 28 28 29 29 30 30 31 31 29 27 28 26 26 25 22 17
17 19 21 18 6 14 6 7 13 10 10 9 7 7 6 8 4 7 9 10 11 15 16 19 20 21 22 22 23 25 26 27 28 29 29 30 29 30 30 31 31 30 30 30 26 26 25 25 21
17 18 21 21 10 11 4 7 13 13 8 12 11 6 7 5 3 5 7 9 11 12 14 17 18 20 19 20 23 23 26 27 28 29 30 30 30 30 31 31 31 31 30 30 30 29 23 25 25
17 19 20 18 18 5 4 6 8 10 8 11 8 6 3 3 1 4 4 6 8 11 12 14 15 17 19 20 22 23 25 26 27 29 29 30 30 31 31 32 32 31 31 30 30 29 29 29 25
17 19 19 18 16 10 5 6 7 7 6 4 1 1 4 2 1 1 3 4 6 8 11 11 13 14 16 19 20 22 24 25 27 28 29 30 30 31 31 31 31 31 31 30 30 30 29 30 31
20 19 18 17 19 15 8 7 8 8 15 5 2 4 2 3 1 0 2 3 4 6 8 9 10 12 14 17 19 21 23 25 27 28 28 30 31 31 32 31 31 31 31 31 31 31 32 32 31
22 21 18 16 20 20 12 10 10 11 14 3 2 2 3 4 4 6 4 3 2 3 5 8 9 11 13 16 18 20 23 24 26 28 28 30 31 31 31 31 31 32 32 32 33 33 33 33 34
21 15 16 17 19 18 15 14 12 12 8 5 2 3 4 5 6 8 7 4 2 2 3 6 9 10 13 16 18 20 22 23 26 28 28 30 30 31 32 31 31 32 33 33 33 34 34 35 35
19 21 21 20 17 19 17 19 14 14 7 8 8 7 7 8 8 9 8 6 4 3 3 5 8 10 13 16 18 19 20 23 25 27 27 29 29 30 31 31 31 32 32 33 34 34 36 36 37
20 22 26 23 14 18 13 24 17 11 9 10 10 10 10 11 11 11 9 8 6 5 5 6 8 11 13 15 17 19 20 22 24 26 27 29 28 29 30 30 31 32 32 33 34 36 37 38 38
22 28 25 29 12 18 15 27 23 14 11 12 12 11 12 12 12 12 11 9 6 5 6 7 8 11 13 15 16 19 19 21 23 25 26 27 28 28 29 30 30 31 32 32 34 36 37 39 41
25 26 27 27 20 17 19 22 26 15 11 13 13 13 13 14 15 14 12 10 8 7 7 7 8 11 12 15 16 19 20 21 22 23 24 26 26 27 29 29 30 30 32 33 34 36 36 39 41
22 27 28 30 27 20 21 23 22 19 16 15 17 17 17 17 15 15 13 12 10 10 9 8 8 10 11 15 17 18 19 21 22 22 22 25 25 26 28 28 29 30 32 33 35 36 38 40 41
26 32 36 36 26 20 27 28 27 23 21 19 19 20 19 18 17 16 15 13 12 11 10 10 9 10 12 14 16 17 18 19 21 22 22 25 24 26 27 28 29 30 32 33 36 37 40 40 42
28 31 33 34 30 28 36 45 38 30 24 23 22 22 21 20 19 17 16 15 13 12 11 10 9 10 11 12 14 16 18 21 22 22 25 24 24 26 26 27 28 31 31 34 34 37 40 44 43
35 25 30 31 33 41 29 52 33 32 34 23 19 19 19 19 18 17 16 15 13 12 10 10 10 8 9 10 12 15 18 20 21 22 23 25 25 27 26 28 30 31 32 34 35 36 37 40 47
32 24 27 28 32 37 34 39 38 25 30 31 23 17 16 16 16 16 15 14 13 11 10 8 8 8 9 9 10 13 17 18 20 22 23 25 25 25 28 29 29 31 32 33 36 37 37 40 42
21 24 26 28 31 42 33 33 61 35 32 30 28 18 15 13 14 14 14 13 13 11 9 8 7 8 8 8 10 13 16 18 21 22 24 25 24 26 28 28 29 30 32 34 35 37 38 37 36
22 25 35 37 37 44 30 35 37 32 26 23 19 17 14 15 14 14 14 14 13 11 9 8 8 8 7 8 11 13 15 17 19 21 22 23 26 28 27 28 30 32 31 32 35 35 33 33 32
27 26 34 42 43 46 35 39 38 26 23 24 20 18 14 15 14 13 13 11 11 10 9 8 8 8 8 10 12 12 15 17 18 19 20 22 24 26 25 28 28 29 30 32 32 32 31 31 29
30 35 28 39 38 45 42 39 37 26 22 19 18 19 13 10 9 10 9 10 9 10 10 9 8 8 9 10 10 11 14 15 19 18 19 21 22 23 26 28 28 28 31 32 32 30 30 29 26
29 24 30 30 44 46 43 39 34 24 21 19 18 15 13 12 9 10 9 8 8 9 9 9 8 9 9 8 8 11 12 14 17 19 21 22 23 25 28 28 28 29 31 31 30 29 27 26 21
32 36 32 32 36 42 49 42 26 24 23 20 15 15 14 13 10 10 10 8 8 9 9 10 9 9 9 7 8 11 13 14 17 19 20 22 24 26 27 28 30 31 32 31 29 27 26 24 15
35 39 37 42 42 41 47 54 30 23 20 19 16 16 14 13 12 12 12 10 10 11 11 11 10 10 9 8 10 11 12 15 18 19 21 22 25 26 27 31 30 31 31 30 29 27 25 22 15
Wind_Direction
253 249 242 241 238 245 241 238 238 241 258 305 354 17 30 2 67 73 163 44 45 52 115 96 77 73 70 66 59 52 52 57 60 56 54 63 58 56 51 53 64 77 81 74 62 37 29 32 26
254 255 255 235 244 244 240 241 293 255 246 41 26 27 0 19 24 48 2 17 43 29 79 75 77 77 72 68 64 57 54 54 55 51 44 44 48 50 53 54 51 58 76 83 86 90 75 57 46
253 240 241 238 241 249 258 251 269 250 231 252 343 336 357 17 360 10 262 36 28 27 53 50 69 74 70 67 63 53 48 52 49 46 43 40 39 40 43 44 49 41 39 42 53 65 67 73 73
253 250 243 242 263 259 284 6 297 275 235 289 18 355 355 280 334 308 294 38 18 25 41 59 65 69 68 64 61 55 49 43 42 38 36 37 34 33 35 28 32 33 30 27 31 43 53 59 66
259 247 242 248 270 285 307 317 310 353 321 339 347 5 9 299 313 339 337 25 41 44 50 60 62 63 61 61 61 56 47 39 33 28 25 27 28 27 31 26 25 24 19 21 21 27 38 50 56
251 251 247 242 267 306 322 299 262 290 7 22 9 18 20 289 338 5 4 10 55 55 57 62 65 65 65 62 57 51 41 30 21 11 5 11 11 9 12 15 15 19 17 17 16 15 20 25 38
252 252 243 270 286 302 320 343 277 314 345 321 54 13 47 36 305 20 19 13 25 58 56 62 62 64 63 59 54 46 35 23 12 4 1 1 3 359 0 357 357 6 10 10 13 11 10 13 21
259 257 253 277 341 302 356 343 304 317 323 18 13 14 60 104 333 37 32 23 19 25 52 64 63 60 60 55 44 32 25 17 11 4 357 354 353 349 350 352 355 359 358 356 6 5 7 7 6
265 261 256 269 308 313 17 337 307 312 332 315 326 358 69 103 360 41 33 22 12 10 26 41 45 44 49 40 29 22 14 14 10 5 357 354 349 348 348 347 347 349 353 353 353 354 4 3 0
267 263 264 289 291 339 4 345 334 317 326 320 336 8 50 93 36 75 44 27 12 12 22 30 27 28 27 25 19 15 10 11 8 4 360 355 353 353 350 349 348 349 349 348 348 346 347 347 352
271 268 278 288 303 325 349 345 338 323 314 312 273 124 120 124 298 137 36 29 14 18 24 30 30 26 21 15 14 11 8 7 4 358 356 355 355 352 353 354 355 355 354 352 347 342 341 338 341
274 280 288 296 299 312 327 333 320 314 305 315 148 155 168 166 167 312 314 339 3 19 19 28 31 26 20 13 9 7 4 0 358 353 354 352 352 353 353 355 355 355 352 348 345 340 335 331 331
278 283 294 305 302 303 316 313 307 305 316 343 142 155 198 227 253 282 292 311 355 8 11 14 20 18 13 7 6 4 1 357 353 349 350 351 352 352 353 354 354 352 349 345 341 338 335 330 325
290 293 298 305 308 306 307 308 305 300 302 305 246 223 222 230 247 271 274 275 279 329 348 358 2 4 3 359 358 358 360 356 349 345 347 349 351 350 350 352 351 348 345 341 339 335 333 330 326
293 292 297 300 306 307 309 302 291 298 273 268 263 256 251 246 256 253 262 258 254 286 320 335 346 351 351 351 351 354 356 353 347 344 345 347 350 350 350 349 348 346 344 341 339 335 331 329 325
292 294 293 301 300 306 307 301 304 282 262 261 255 251 246 250 254 259 260 263 261 281 300 322 335 340 344 345 348 349 351 350 346 344 345 346 350 350 350 349 347 346 345 342 339 334 330 327 325
292 289 293 298 291 305 297 304 308 299 254 261 259 249 242 248 253 256 259 257 269 275 291 306 322 330 337 342 345 345 347 347 345 344 346 347 347 349 350 348 346 345 344 342 339 337 333 329 325
291 292 296 297 297 288 290 295 305 305 270 262 257 253 251 247 240 254 256 260 267 287 293 303 313 324 334 338 340 341 343 342 343 345 347 347 348 349 348 345 344 344 343 340 339 336 334 331 327
295 296 297 298 308 285 282 291 297 293 282 270 264 259 252 249 255 253 249 256 268 278 286 301 308 317 326 329 332 335 337 340 341 344 346 346 347 348 346 344 343 343 341 340 337 335 331 329 329
290 289 291 295 304 290 294 289 291 292 274 267 259 260 257 263 258 250 249 253 261 268 276 284 295 311 319 326 332 337 338 340 341 342 344 344 345 345 343 343 343 343 341 339 337 336 331 330 329
284 287 292 294 300 293 296 290 293 295 288 279 268 263 260 252 253 250 246 250 257 265 270 279 283 298 312 324 333 337 338 339 340 341 340 342 343 342 343 344 344 342 340 338 337 335 332 328 328
286 293 295 294 294 291 298 291 297 299 300 296 276 269 262 257 256 251 245 250 254 262 270 274 284 289 305 319 328 331 332 334 338 340 340 340 342 342 346 344 343 342 341 338 336 335 332 330 326
291 296 297 296 291 293 290 295 298 302 302 301 294 267 262 254 249 249 241 245 253 262 269 268 267 285 300 312 323 329 331 334 337 338 338 339 341 344 344 343 343 341 341 339 336 335 334 331 328
293 295 298 298 294 285 288 290 284 295 299 300 297 278 265 258 254 259 254 257 257 260 261 264 262 280 293 306 319 325 328 331 333 335 335 337 341 343 343 344 343 342 340 339 340 336 333 333 331
288 288 288 287 283 284 291 288 280 301 303 305 306 293 270 267 267 262 261 257 258 255 243 247 254 276 289 302 314 321 326 329 330 332 334 337 339 340 342 343 342 341 341 340 338 337 335 335 332
272 272 279 286 286 290 290 286 291 298 294 285 295 298 287 276 269 258 260 253 249 244 242 244 249 267 284 301 312 318 325 329 330 332 334 336 338 339 342 342 341 340 339 338 338 337 335 335 333
279 268 273 284 288 289 288 290 294 300 300 295 290 292 282 272 265 247 253 252 249 244 242 242 251 266 283 297 307 315 324 329 332 335 337 337 338 340 341 340 338 338 338 338 337 334 334 334 332
271 283 280 274 282 282 286 287 288 293 274 268 280 274 271 277 268 257 258 250 253 253 250 242 252 269 281 287 296 314 322 330 335 336 335 337 339 339 338 338 338 338 337 337 337 333 334 333 330
271 269 278 279 275 281 286 287 292 285 285 282 261 269 268 270 261 256 260 258 266 261 250 250 258 268 281 280 295 312 320 329 333 334 336 337 338 339 339 339 339 337 336 337 337 335 333 332 314
268 270 258 271 280 277 278 279 294 294 292 293 285 273 270 270 262 265 262 264 269 259 255 254 262 267 275 280 297 309 320 327 331 334 336 339 338 339 340 338 338 337 338 337 336 334 332 329 297